Location: Los Gatos B&B
(42.6926°N, 77.0646°W)
Time: 19:27:28
(UTC-05:00)

Amateur Radio Satellites - All Passes

Search period start: 10 February 2016 18:57
Search period end: 11 February 2016 18:57
Location: Los Gatos B&B, 42.6926°N, 77.0646°W

Satellite Date Start Highest point End Downlink Frequencies (MHz)
Time Altitude Azimuth
Cosmos 2499 10 Feb 18:58:00 19:02:21 15° 56° (NE) 19:06:33 435.465 / 435.565
DOVE 4 10 Feb 19:01:16 19:06:23 87° 77° (ENE) 19:11:14 437.250
CANX-2 10 Feb 19:01:30 19:05:24 38° 71° (ENE) 19:09:20 2200.000
AO-85 10 Feb 19:14:51 19:20:01 74° 240° (WSW) 19:24:44 145.980
GOMX 1 10 Feb 19:24:35 19:29:26 33° 264° (W) 19:34:06 467.674
COMPASS 1 10 Feb 19:40:57 19:44:58 51° 73° (ENE) 19:49:02 437.405
STRAND 1 10 Feb 19:41:57 19:47:08 75° 286° (WNW) 19:52:16 437.568
DELFI C3 10 Feb 19:44:50 19:45:17 10° 61° (ENE) 19:45:45 145.870
PCSat 10 Feb 19:47:10 19:52:38 82° 59° (ENE) 19:58:04 145.827
Oscar 11 10 Feb 19:47:44 19:51:04 22° 67° (ENE) 19:54:26 145.826/435.025
CINEMA 3 10 Feb 19:50:02 19:54:41 83° 257° (WSW) 19:59:07 145.822/145.860
UWE-3 10 Feb 19:51:17 19:54:48 26° 69° (ENE) 19:58:17 435.000/436.395/437.385
CUTE 1.7 + AOD 2 10 Feb 19:51:41 19:55:51 66° 260° (W) 20:00:04 437.475
CUBEBUG 2 10 Feb 19:51:52 19:55:50 36° 71° (ENE) 19:59:42 437.445
PRISM 10 Feb 19:55:11 19:59:17 51° 100° (E) 20:03:20 437.425
SEEDS 10 Feb 19:56:31 20:00:41 77° 258° (WSW) 20:04:54 437.485
GONETS M04 10 Feb 20:05:15 20:14:07 82° 82° (E) 20:22:58
AAUSAT CUBESAT 2 10 Feb 20:08:39 20:12:47 87° 76° (ENE) 20:16:59 437.432
RS-15 10 Feb 20:16:25 20:28:39 81° 55° (NE) 20:41:02 29.354- 29.394
ISS 10 Feb 20:18:15 20:20:59 24° 18° (NNE) 20:23:43 145.825
HO-68 10 Feb 20:22:23 20:29:08 44° 261° (W) 20:35:58 435.675
AIST 1 10 Feb 20:31:10 20:33:44 15° 69° (ENE) 20:36:18
AIST 2 10 Feb 20:35:12 20:37:52 16° 320° (NW) 20:40:32 435.215
CANX-2 10 Feb 20:38:26 20:41:24 19° 268° (W) 20:44:24 2200.000
ZACube-1 10 Feb 20:42:36 20:46:46 66° 75° (ENE) 20:50:54 437.345
DOVE 4 10 Feb 20:43:26 20:44:35 11° 272° (W) 20:45:43 437.250
Cosmos 2499 10 Feb 20:48:53 20:57:20 71° 79° (E) 21:05:05 435.465 / 435.565
FUNcube-1 10 Feb 20:51:10 20:55:22 79° 75° (ENE) 20:59:31 145.935
HUMSAT D 10 Feb 20:54:26 20:57:49 26° 68° (ENE) 21:01:13 437.325/437.525
DELFI C3 10 Feb 21:15:38 21:19:36 73° 258° (WSW) 21:23:37 145.870
AISAT 10 Feb 21:17:18 21:18:51 12° 60° (ENE) 21:20:23 437.250
COMPASS 1 10 Feb 21:18:46 21:20:52 14° 270° (W) 21:22:58 437.405
50 SAT 10 Feb 21:20:46 21:21:35 11° 62° (ENE) 21:22:23 437.505
Oscar 11 10 Feb 21:23:07 21:27:01 34° 263° (W) 21:30:57 145.826/435.025
STRAND 1 10 Feb 21:24:19 21:25:24 11° 304° (NW) 21:26:28 437.568
UKube-1 10 Feb 21:24:54 21:26:31 12° 60° (ENE) 21:28:09 .
UWE-3 10 Feb 21:27:35 21:31:13 27° 264° (W) 21:34:49 435.000/436.395/437.385
CUBEBUG 2 10 Feb 21:29:24 21:32:34 20° 266° (W) 21:35:41 437.445
PRISM 10 Feb 21:31:46 21:34:12 15° 297° (WNW) 21:36:37 437.425
PCSat 10 Feb 21:32:35 21:35:17 14° 257° (WSW) 21:37:59 145.827
CUBEBUG 1 10 Feb 21:33:34 21:35:44 14° 62° (ENE) 21:37:54 437.445
DX 1 10 Feb 21:36:58 21:40:01 19° 64° (ENE) 21:43:05 434.975-435.025
ESTCUBE 1 10 Feb 21:40:43 21:44:08 21° 65° (ENE) 21:47:34 437.505/2401.250
ANTELSAT 10 Feb 21:48:00 21:51:23 22° 94° (E) 21:54:49 437.575/2403.000
TIGRISAT 10 Feb 21:54:25 21:57:58 24° 95° (E) 22:01:34 435.000
ISS 10 Feb 21:54:28 21:57:42 71° 216° (SW) 22:00:55 145.825
GONETS M04 10 Feb 22:03:45 22:09:49 21° 282° (WNW) 22:15:54
AIST 1 10 Feb 22:07:28 22:11:40 48° 267° (W) 22:15:47
ZACube-1 10 Feb 22:22:45 22:23:30 10° 271° (W) 22:24:14 437.345
HUMSAT D 10 Feb 22:29:59 22:33:24 26° 265° (W) 22:36:50 437.325/437.525
RS-15 10 Feb 22:30:01 22:39:57 31° 257° (WSW) 22:49:57 29.354- 29.394
VELOX 1 10 Feb 22:33:24 22:37:49 65° 74° (ENE) 22:42:16 145.980
UNISAT 6 10 Feb 22:38:52 22:43:14 78° 104° (ESE) 22:47:39 437.425
POLYITAN 1 10 Feb 22:41:00 22:44:03 19° 93° (E) 22:47:06 437.675
QB50P2 10 Feb 22:41:32 22:44:41 20° 94° (E) 22:47:49 145.880/145.840
Cosmos 2499 10 Feb 22:43:20 22:49:31 24° 281° (W) 22:55:23 435.465 / 435.565
AISAT 10 Feb 22:50:13 22:54:41 80° 257° (WSW) 22:59:11 437.250
50 SAT 10 Feb 22:51:27 22:55:05 59° 259° (W) 22:58:47 437.505
UKube-1 10 Feb 22:57:39 23:01:59 74° 257° (WSW) 23:06:21 .
SPROUT 10 Feb 23:05:30 23:09:33 41° 71° (ENE) 23:13:36 437.525
CUBEBUG 1 10 Feb 23:07:04 23:11:29 67° 259° (W) 23:15:55 437.445
POPSAT HIP 1 10 Feb 23:10:25 23:14:22 39° 98° (E) 23:18:19 437.405
DX 1 10 Feb 23:11:42 23:15:54 44° 261° (W) 23:20:06 434.975-435.025
TISAT 1 10 Feb 23:11:51 23:14:52 19° 65° (ENE) 23:17:53 437.305
NANOSAT C BR1 10 Feb 23:14:27 23:18:27 42° 99° (E) 23:22:26 145.865
DUCHIFAT 1 10 Feb 23:15:26 23:19:24 41° 99° (E) 23:23:22 145.980
ESTCUBE 1 10 Feb 23:16:26 23:20:41 40° 262° (W) 23:24:59 437.505/2401.250
QB50P1 10 Feb 23:22:51 23:26:59 55° 100° (E) 23:31:06 145.935-145.965
ANTELSAT 10 Feb 23:24:14 23:28:11 35° 290° (WNW) 23:32:12 437.575/2403.000
TIGRISAT 10 Feb 23:30:52 23:34:41 31° 291° (WNW) 23:38:34 435.000
SWISSCUBE 10 Feb 23:43:39 23:44:27 10° 57° (ENE) 23:45:14 437.505
CUSAT 1 10 Feb 23:47:50 23:51:20 13° 78° (ENE) 23:54:49 437.405
BUGSAT 1 11 Feb 00:12:37 00:16:40 83° 283° (WNW) 00:20:41 437.445
VELOX 1 11 Feb 00:12:51 00:14:43 12° 270° (W) 00:16:36 145.980
POLYITAN 1 11 Feb 00:16:08 00:20:00 36° 290° (WNW) 00:23:51 437.675
QB50P2 11 Feb 00:16:46 00:20:35 35° 290° (WNW) 00:24:25 145.880/145.840
ITUPSAT 1 11 Feb 00:18:00 00:21:28 20° 63° (ENE) 00:24:57 437.325
UNISAT 6 11 Feb 00:18:02 00:19:21 11° 299° (WNW) 00:20:41 437.425
PHONESAT 2.4 11 Feb 00:21:44 00:24:16 21° 155° (SSE) 00:26:48 2401.200-2431.200
BEESAT 11 Feb 00:25:22 00:29:09 24° 65° (ENE) 00:32:57 436.000
DANDE 11 Feb 00:28:21 00:33:06 17° 77° (ENE) 00:38:00 436.750
JAS-2 11 Feb 00:35:56 00:38:33 13° 87° (E) 00:41:06 435.910
SPROUT 11 Feb 00:42:47 00:45:43 18° 268° (W) 00:48:39 437.525
BEESAT 3 11 Feb 00:45:26 00:48:46 25° 46° (NE) 00:52:03 437.485
TISAT 1 11 Feb 00:46:18 00:50:16 39° 262° (W) 00:54:15 437.305
POPSAT HIP 1 11 Feb 00:46:56 00:49:54 19° 295° (WNW) 00:52:51 437.405
NANOSAT C BR1 11 Feb 00:51:05 00:53:53 18° 295° (WNW) 00:56:40 145.865
DUCHIFAT 1 11 Feb 00:52:00 00:54:49 18° 295° (WNW) 00:57:38 145.980
Cosmos 2491 11 Feb 00:55:48 01:03:12 29° 67° (ENE) 01:10:34 435.465 / 435.565
QB50P1 11 Feb 01:00:06 01:02:19 14° 297° (WNW) 01:04:32 145.935-145.965
BEESAT 2 11 Feb 01:11:31 01:15:04 29° 48° (NE) 01:18:34 435.950
SWISSCUBE 11 Feb 01:16:40 01:21:26 82° 74° (ENE) 01:26:15 437.505
CUSAT 1 11 Feb 01:24:22 01:32:16 66° 95° (E) 01:40:09 437.405
Oscar 19 11 Feb 01:31:36 01:36:43 64° 102° (ESE) 01:41:47 437.125/150
KKS-1 11 Feb 01:47:23 01:50:49 22° 66° (ENE) 01:54:16 437.445
YUBILEINY 11 Feb 01:47:48 01:54:17 24° 79° (E) 02:00:47 435.215
ITUPSAT 1 11 Feb 01:54:22 01:58:58 47° 260° (W) 02:03:36 437.325
PHONESAT 2.4 11 Feb 01:57:58 02:01:10 51° 172° (S) 02:04:22 2401.200-2431.200
BEESAT 11 Feb 02:02:18 02:06:44 39° 262° (W) 02:11:12 436.000
DANDE 11 Feb 02:06:51 02:14:40 78° 97° (E) 02:23:12 436.750
Gurwin Techsat 1B 11 Feb 02:11:36 02:16:52 57° 101° (E) 02:22:06 435.225
JAS-2 11 Feb 02:18:48 02:24:29 74° 286° (WNW) 02:29:42 435.910
BEESAT 3 11 Feb 02:22:59 02:26:35 33° 244° (WSW) 02:30:07 437.485
ITAMSAT 1 11 Feb 02:42:53 02:48:05 58° 101° (ESE) 02:53:13 435.822/435.867
BEESAT 2 11 Feb 02:49:28 02:52:53 28° 246° (WSW) 02:56:17 435.950
Cosmos 2491 11 Feb 02:52:03 03:00:40 65° 268° (W) 03:09:17 435.465 / 435.565
SWISSCUBE 11 Feb 02:58:48 02:59:50 11° 272° (W) 03:00:53 437.505
STARS 11 Feb 03:02:24 03:06:47 73° 75° (ENE) 03:11:11 437.465
CUSAT 1 11 Feb 03:08:08 03:15:03 31° 293° (WNW) 03:21:52 437.405
Oscar 19 11 Feb 03:12:12 03:15:30 17° 299° (WNW) 03:18:48 437.125/150
AO-7 11 Feb 03:13:45 03:21:13 35° 97° (E) 03:28:36 29.400- 29.500
AIST 2 11 Feb 03:15:33 03:19:39 57° 53° (NE) 03:23:42 435.215
KKS-1 11 Feb 03:23:03 03:27:11 37° 262° (W) 03:31:20 437.445
MOZHAYETS 4 11 Feb 03:24:41 03:29:16 85° 74° (ENE) 03:33:52
PHONESAT 2.4 11 Feb 03:35:04 03:38:16 52° 187° (S) 03:41:27 2401.200-2431.200
YUBILEINY 11 Feb 03:41:20 03:50:06 76° 279° (W) 03:58:59 435.215
DANDE 11 Feb 03:51:57 03:58:32 27° 297° (WNW) 04:05:25 436.750
Gurwin Techsat 1B 11 Feb 03:52:33 03:56:22 20° 298° (WNW) 04:00:11 435.225
JAS-2 11 Feb 04:07:11 04:08:24 11° 308° (NW) 04:09:33 435.910
CUBESAT XI-V 11 Feb 04:09:29 04:13:25 27° 67° (ENE) 04:17:24 437.345
ITAMSAT 1 11 Feb 04:23:23 04:27:05 20° 299° (WNW) 04:30:47 435.822/435.867
Cosmos 2504 11 Feb 04:27:54 04:36:09 54° 89° (E) 04:44:43 435.465 / 435.565
SO-50 11 Feb 04:28:10 04:32:54 52° 118° (ESE) 04:37:43 436.795
M-CUBED/EXP-1 PRIME 11 Feb 04:30:00 04:33:22 61° 106° (ESE) 04:36:57 437.505
AUBIESAT-1 11 Feb 04:38:38 04:42:04 65° 107° (ESE) 04:45:42 437.475
HORYU 2 11 Feb 04:40:04 04:44:32 77° 102° (ESE) 04:49:00 437.375
STARS 11 Feb 04:42:44 04:43:39 11° 271° (W) 04:44:34 437.465
Cosmos 2491 11 Feb 04:53:16 04:55:38 11° 288° (WNW) 04:58:00 435.465 / 435.565
AIST 2 11 Feb 04:55:28 04:57:40 14° 251° (WSW) 04:59:53 435.215
AO-7 11 Feb 05:06:13 05:14:16 55° 296° (WNW) 05:22:15 29.400- 29.500
PHONESAT 2.4 11 Feb 05:12:35 05:15:10 21° 204° (SSW) 05:17:44 2401.200-2431.200
STRAND 1 11 Feb 05:20:58 05:24:53 23° 63° (ENE) 05:28:48 437.568
LilacSat-2 11 Feb 05:32:55 05:35:03 14° 92° (E) 05:37:10 437.200
YUBILEINY 11 Feb 05:43:29 05:48:37 16° 302° (WNW) 05:53:47 435.215
CUBESAT XI-V 11 Feb 05:46:29 05:50:42 32° 264° (W) 05:54:57 437.345
CUTE-I 11 Feb 06:09:24 06:14:36 47° 99° (E) 06:19:46 437.470
SO-50 11 Feb 06:09:34 06:13:41 26° 317° (NW) 06:17:51 436.795
HORYU 2 11 Feb 06:18:48 06:20:29 12° 300° (WNW) 06:22:11 437.375
Cosmos 2504 11 Feb 06:22:02 06:29:51 37° 290° (WNW) 06:37:56 435.465 / 435.565
Cubesat XI-IV 11 Feb 06:23:29 06:28:50 63° 102° (ESE) 06:34:10 437.490
BRITE-PL 11 Feb 06:26:58 06:31:21 36° 96° (E) 06:35:23 437.365/2234.400
PRISM 11 Feb 06:45:20 06:49:14 40° 71° (ENE) 06:53:11 437.425
STRAND 1 11 Feb 06:58:48 07:03:43 48° 260° (W) 07:08:42 437.568
DOVE 4 11 Feb 07:00:44 07:03:47 19° 93° (E) 07:06:46 437.250
AO-7 11 Feb 07:01:33 07:05:12 14° 318° (NW) 07:08:51 29.400- 29.500
LilacSat-2 11 Feb 07:06:00 07:09:33 39° 288° (WNW) 07:13:06 437.200
O/OREOS (USA 219) 11 Feb 07:08:10 07:12:03 30° 104° (ESE) 07:15:59 437.305
GONETS M04 11 Feb 07:14:25 07:19:53 19° 77° (ENE) 07:25:20
GOMX 1 11 Feb 07:25:38 07:30:04 75° 102° (ESE) 07:34:16 467.674
CUTE 1.7 + AOD 2 11 Feb 07:36:34 07:39:46 20° 93° (E) 07:42:57 437.475
Cosmos 2499 11 Feb 07:40:31 07:41:47 10° 70° (ENE) 07:43:03 435.465 / 435.565
SEEDS 11 Feb 07:40:47 07:43:34 17° 92° (E) 07:46:20 437.485
CINEMA 3 11 Feb 07:44:46 07:47:49 19° 93° (E) 07:50:52 145.822/145.860
HO-68 11 Feb 07:48:54 07:55:28 37° 97° (E) 08:01:59 435.675
CUTE-I 11 Feb 07:50:05 07:54:22 25° 296° (WNW) 07:58:38 437.470
AAUSAT CUBESAT 2 11 Feb 07:52:00 07:54:03 13° 90° (E) 07:56:04 437.432
Cubesat XI-IV 11 Feb 08:04:42 08:08:24 19° 299° (WNW) 08:12:06 437.490
BRITE-PL 11 Feb 08:05:54 08:09:36 23° 295° (WNW) 08:13:05 437.365/2234.400
CANX-2 11 Feb 08:21:06 08:25:24 71° 102° (ESE) 08:29:41 2200.000
PRISM 11 Feb 08:21:57 08:24:45 17° 267° (W) 08:27:34 437.425
ZACube-1 11 Feb 08:32:04 08:33:37 12° 90° (E) 08:35:10 437.345
DOVE 4 11 Feb 08:37:47 08:41:39 35° 290° (WNW) 08:45:25 437.250
FUNcube-1 11 Feb 08:39:47 08:41:59 14° 91° (E) 08:44:13 145.935
O/OREOS (USA 219) 11 Feb 08:47:32 08:51:24 28° 302° (WNW) 08:55:21 437.305
ANTELSAT 11 Feb 08:48:02 08:51:17 21° 66° (ENE) 08:54:32 437.575/2403.000
TIGRISAT 11 Feb 08:54:12 08:57:37 23° 67° (ENE) 09:01:02 435.000
DELFI C3 11 Feb 08:54:23 08:56:32 14° 91° (E) 08:58:41 145.870
COMPASS 1 11 Feb 08:58:24 09:02:40 90° 296° (WNW) 09:06:54 437.405
GOMX 1 11 Feb 09:06:12 09:07:28 11° 301° (WNW) 09:08:44 467.674
GONETS M04 11 Feb 09:06:43 09:15:24 89° 274° (W) 09:24:12
Oscar 11 11 Feb 09:09:08 09:13:14 39° 98° (E) 09:17:19 145.826/435.025
CUTE 1.7 + AOD 2 11 Feb 09:11:47 09:15:43 36° 290° (WNW) 09:19:40 437.475
SEEDS 11 Feb 09:15:26 09:19:29 43° 288° (WNW) 09:23:31 437.485
UWE-3 11 Feb 09:15:26 09:19:33 51° 100° (E) 09:23:44 435.000/436.395/437.385
CUBEBUG 2 11 Feb 09:17:47 09:21:59 76° 102° (ESE) 09:26:16 437.445
CINEMA 3 11 Feb 09:21:19 09:25:05 34° 289° (WNW) 09:28:52 145.822/145.860
Cosmos 2499 11 Feb 09:24:25 09:32:54 58° 91° (E) 09:41:33 435.465 / 435.565
AAUSAT CUBESAT 2 11 Feb 09:25:46 09:29:52 54° 287° (WNW) 09:33:59 437.432
AO-85 11 Feb 09:29:10 09:34:00 36° 114° (ESE) 09:38:59 145.980
POLYITAN 1 11 Feb 09:34:57 09:37:44 17° 65° (ENE) 09:40:31 437.675
QB50P2 11 Feb 09:35:25 09:38:18 18° 65° (ENE) 09:41:10 145.880/145.840
HO-68 11 Feb 09:36:29 09:43:15 46° 295° (WNW) 09:50:01 435.675
UNISAT 6 11 Feb 09:38:23 09:42:41 74° 75° (ENE) 09:46:57 437.425
CANX-2 11 Feb 09:59:03 10:00:41 12° 298° (WNW) 10:02:19 2200.000
POPSAT HIP 1 11 Feb 10:03:41 10:07:28 33° 70° (ENE) 10:11:16 437.405
ZACube-1 11 Feb 10:06:07 10:10:17 62° 286° (WNW) 10:14:32 437.345
NANOSAT C BR1 11 Feb 10:07:20 10:11:11 35° 70° (ENE) 10:15:02 145.865
DUCHIFAT 1 11 Feb 10:08:06 10:11:55 34° 70° (ENE) 10:15:44 145.980
HUMSAT D 11 Feb 10:11:50 10:15:50 44° 99° (E) 10:19:52 437.325/437.525
FUNcube-1 11 Feb 10:14:26 10:18:32 52° 286° (WNW) 10:22:43 145.935
QB50P1 11 Feb 10:15:53 10:19:55 45° 72° (ENE) 10:23:58 145.935-145.965
ANTELSAT 11 Feb 10:23:52 10:27:49 35° 263° (W) 10:31:45 437.575/2403.000
50 SAT 11 Feb 10:23:54 10:25:27 12° 91° (E) 10:26:59 437.505
VELOX 1 11 Feb 10:25:14 10:26:39 11° 89° (E) 10:28:04 145.980
DELFI C3 11 Feb 10:27:49 10:31:43 47° 287° (WNW) 10:35:36 145.870
PCSat 11 Feb 10:29:16 10:34:38 66° 116° (ESE) 10:40:01 145.827
TIGRISAT 11 Feb 10:30:21 10:34:11 31° 263° (W) 10:38:01 435.000
AIST 1 11 Feb 10:36:53 10:41:17 87° 272° (W) 10:45:43
AISAT 11 Feb 10:40:48 10:43:51 18° 93° (E) 10:46:52 437.250
RS-15 11 Feb 10:40:57 10:51:18 48° 110° (ESE) 11:02:09 29.354- 29.394
UKube-1 11 Feb 10:45:12 10:48:03 17° 93° (E) 10:50:53 .
Oscar 11 11 Feb 10:45:55 10:49:06 20° 294° (WNW) 10:52:17 145.826/435.025
JAS-2 11 Feb 10:50:51 10:52:53 11° 53° (NE) 10:54:54 435.910
UWE-3 11 Feb 10:53:12 10:55:39 15° 296° (WNW) 10:58:07 435.000/436.395/437.385
CUBEBUG 1 11 Feb 10:55:44 10:59:04 21° 94° (E) 11:02:21 437.445
CUBEBUG 2 11 Feb 10:57:10 10:58:03 11° 299° (WNW) 10:58:56 437.445
DX 1 11 Feb 10:59:17 11:03:04 28° 96° (E) 11:06:49 434.975-435.025
BUGSAT 1 11 Feb 11:02:38 11:06:49 74° 75° (ENE) 11:10:59 437.445
GONETS M04 11 Feb 11:07:36 11:13:33 20° 299° (WNW) 11:19:34
ESTCUBE 1 11 Feb 11:08:00 11:12:17 39° 98° (E) 11:16:31 437.505/2401.250
DANDE 11 Feb 11:08:56 11:11:01 11° 50° (NE) 11:12:59 436.750
POLYITAN 1 11 Feb 11:09:10 11:13:13 44° 261° (W) 11:17:17 437.675
AO-85 11 Feb 11:09:27 11:14:31 40° 312° (NW) 11:19:42 145.980
QB50P2 11 Feb 11:09:46 11:13:48 42° 261° (W) 11:17:50 145.880/145.840
Oscar 19 11 Feb 11:12:59 11:15:38 14° 59° (ENE) 11:18:16 437.125/150
Cosmos 2499 11 Feb 11:18:40 11:26:27 34° 291° (WNW) 11:34:23 435.465 / 435.565
SO-50 11 Feb 11:20:12 11:22:15 12° 31° (NNE) 11:24:16 436.795
POPSAT HIP 1 11 Feb 11:40:03 11:43:20 22° 266° (W) 11:46:37 437.405
NANOSAT C BR1 11 Feb 11:43:52 11:47:02 20° 266° (W) 11:50:11 145.865
DUCHIFAT 1 11 Feb 11:44:31 11:47:43 21° 266° (W) 11:50:54 145.980
HUMSAT D 11 Feb 11:48:26 11:51:10 17° 295° (WNW) 11:53:54 437.325/437.525
QB50P1 11 Feb 11:53:20 11:55:56 16° 268° (W) 11:58:34 145.935-145.965
50 SAT 11 Feb 11:56:04 11:59:44 48° 287° (WNW) 12:03:25 437.505
Gurwin Techsat 1B 11 Feb 11:56:49 11:59:31 14° 58° (ENE) 12:02:13 435.225
YUBILEINY 11 Feb 11:57:22 12:00:18 12° 53° (NE) 12:03:13 435.215
VELOX 1 11 Feb 11:59:12 12:03:36 69° 287° (WNW) 12:07:58 145.980
CUSAT 1 11 Feb 12:02:41 12:08:12 41° 70° (ENE) 12:12:23 437.405
PCSat 11 Feb 12:14:16 12:18:30 23° 316° (NW) 12:22:46 145.827
AISAT 11 Feb 12:16:22 12:20:33 43° 289° (WNW) 12:24:41 437.250
UKube-1 11 Feb 12:20:12 12:24:19 44° 289° (WNW) 12:28:24 .
ITAMSAT 1 11 Feb 12:25:33 12:28:02 14° 58° (ENE) 12:30:32 435.822/435.867
SPROUT 11 Feb 12:26:28 12:30:45 75° 103° (ESE) 12:34:59 437.525
AO-7 11 Feb 12:27:00 12:30:22 13° 41° (NE) 12:33:42 29.400- 29.500
JAS-2 11 Feb 12:29:19 12:36:42 56° 70° (ENE) 12:43:24 435.910
TISAT 1 11 Feb 12:29:38 12:33:16 28° 96° (E) 12:36:52 437.305
CUBEBUG 1 11 Feb 12:31:28 12:35:27 36° 290° (WNW) 12:39:25 437.445
DX 1 11 Feb 12:35:31 12:39:11 27° 293° (WNW) 12:42:50 434.975-435.025
ESTCUBE 1 11 Feb 12:45:22 12:48:51 22° 295° (WNW) 12:52:19 437.505/2401.250
DANDE 11 Feb 12:48:59 12:55:59 64° 75° (ENE) 13:01:13 436.750
Oscar 19 11 Feb 12:49:04 12:54:16 83° 256° (WSW) 12:59:28 437.125/150
RS-15 11 Feb 12:52:31 13:03:31 57° 314° (NW) 13:15:10 29.354- 29.394
AO-85 11 Feb 12:54:51 12:56:35 11° 334° (NNW) 12:58:19 145.980
SO-50 11 Feb 12:59:03 13:03:50 56° 52° (NE) 13:08:26 436.795
SWISSCUBE 11 Feb 13:16:59 13:20:30 20° 93° (E) 13:24:00 437.505
Gurwin Techsat 1B 11 Feb 13:33:26 13:38:44 85° 257° (WSW) 13:44:06 435.225
CUSAT 1 11 Feb 13:45:48 13:49:54 21° 278° (W) 13:53:17 437.405
YUBILEINY 11 Feb 13:50:40 13:59:24 58° 77° (ENE) 14:08:01 435.215
ITUPSAT 1 11 Feb 13:53:58 13:58:32 41° 99° (E) 14:03:04 437.325
Cosmos 2491 11 Feb 13:58:41 14:06:00 32° 83° (E) 14:13:21 435.465 / 435.565
BEESAT 11 Feb 14:01:14 14:05:54 49° 100° (E) 14:10:32 436.000
ITAMSAT 1 11 Feb 14:01:34 14:06:46 87° 256° (WSW) 14:12:01 435.822/435.867
SPROUT 11 Feb 14:04:49 14:06:07 11° 299° (WNW) 14:07:25 437.525
TISAT 1 11 Feb 14:05:25 14:08:51 25° 293° (WNW) 14:12:15 437.305
AO-7 11 Feb 14:13:14 14:21:13 52° 63° (ENE) 14:29:15 29.400- 29.500
JAS-2 11 Feb 14:15:24 14:21:53 30° 265° (W) 14:27:58 435.910
Cosmos 2504 11 Feb 14:20:58 14:27:07 21° 61° (ENE) 14:33:00 435.465 / 435.565
DANDE 11 Feb 14:33:22 14:37:53 19° 281° (W) 14:41:44 436.750
ISS 11 Feb 14:34:56 14:37:31 22° 135° (SE) 14:40:07 145.825
SO-50 11 Feb 14:40:36 14:43:52 18° 250° (WSW) 14:47:03 436.795
STARS 11 Feb 14:53:06 14:54:54 12° 90° (E) 14:56:42 437.465
SWISSCUBE 11 Feb 14:53:56 14:58:32 46° 289° (WNW) 15:03:06 437.505
RS-15 11 Feb 15:10:01 15:19:22 27° 346° (NNW) 15:29:06 29.354- 29.394
KKS-1 11 Feb 15:12:59 15:17:07 37° 98° (E) 15:21:13 437.445
M-CUBED/EXP-1 PRIME 11 Feb 15:18:06 15:21:42 83° 252° (WSW) 15:25:07 437.505
Gurwin Techsat 1B 11 Feb 15:18:37 15:19:27 10° 273° (W) 15:20:17 435.225
MOZHAYETS 4 11 Feb 15:19:49 15:23:09 19° 92° (E) 15:26:28
AUBIESAT-1 11 Feb 15:26:17 15:29:52 81° 252° (WSW) 15:33:18 437.475
ITUPSAT 1 11 Feb 15:32:20 15:36:08 24° 295° (WNW) 15:39:55 437.325
HORYU 2 11 Feb 15:38:39 15:43:03 77° 74° (ENE) 15:47:29 437.375
BEESAT 11 Feb 15:39:53 15:43:20 20° 297° (WNW) 15:46:45 436.000
ITAMSAT 1 11 Feb 15:46:17 15:46:59 10° 273° (W) 15:47:40 435.822/435.867
YUBILEINY 11 Feb 15:48:12 15:55:40 32° 277° (W) 16:03:06 435.215
Cosmos 2491 11 Feb 15:53:49 16:02:20 58° 283° (WNW) 16:10:55 435.465 / 435.565
CUTE-I 11 Feb 15:56:02 15:58:06 12° 56° (ENE) 16:00:09 437.470
AO-7 11 Feb 16:06:35 16:14:11 38° 262° (W) 16:21:50 29.400- 29.500
Cubesat XI-IV 11 Feb 16:09:03 16:12:13 16° 59° (ENE) 16:15:23 437.490
ISS 11 Feb 16:10:37 16:13:47 48° 332° (NNW) 16:16:57 145.825
Cosmos 2504 11 Feb 16:13:06 16:21:47 87° 265° (W) 16:29:49 435.465 / 435.565
BEESAT 3 11 Feb 16:14:37 16:18:09 31° 115° (ESE) 16:21:42 437.485
AO-85 11 Feb 16:22:09 16:23:12 11° 24° (NNE) 16:24:14 145.980
STARS 11 Feb 16:27:22 16:31:41 62° 287° (WNW) 16:35:59 437.465
BEESAT 2 11 Feb 16:41:55 16:45:40 39° 117° (ESE) 16:49:26 435.950
KKS-1 11 Feb 16:50:05 16:53:28 22° 295° (WNW) 16:56:49 437.445
MOZHAYETS 4 11 Feb 16:56:06 17:00:31 44° 289° (WNW) 17:04:56
GOMX 1 11 Feb 16:59:01 17:01:11 13° 60° (ENE) 17:03:19 467.674
O/OREOS (USA 219) 11 Feb 17:16:38 17:21:13 67° 65° (ENE) 17:25:47 437.305
RS-15 11 Feb 17:27:04 17:37:06 29° 21° (NNE) 17:47:22 29.354- 29.394
CUTE-I 11 Feb 17:31:57 17:37:17 82° 74° (ENE) 17:42:39 437.470
PCSat 11 Feb 17:34:41 17:37:15 13° 35° (NE) 17:39:48 145.827
BRITE-PL 11 Feb 17:36:57 17:42:26 51° 72° (ENE) 17:47:45 437.365/2234.400
CUBESAT XI-V 11 Feb 17:41:41 17:46:21 59° 100° (E) 17:50:57 437.345
Cubesat XI-IV 11 Feb 17:46:19 17:51:39 76° 257° (WSW) 17:57:01 437.490
LilacSat-2 11 Feb 17:48:17 17:52:05 76° 258° (WSW) 17:55:54 437.200
ISS 11 Feb 17:48:27 17:50:48 18° 351° (N) 17:53:09 145.825
BEESAT 3 11 Feb 17:52:30 17:55:55 26° 313° (NW) 17:59:20 437.485
Cosmos 2491 11 Feb 17:58:52 18:01:27 11° 307° (NW) 18:04:03 435.465 / 435.565
AO-85 11 Feb 18:00:25 18:05:19 38° 47° (NE) 18:09:48 145.980
DOVE 4 11 Feb 18:06:14 18:10:22 26° 68° (ENE) 18:14:19 437.250
Cosmos 2504 11 Feb 18:08:43 18:13:43 17° 285° (WNW) 18:18:35 435.465 / 435.565
HO-68 11 Feb 18:18:44 18:24:49 31° 60° (ENE) 18:30:54 435.675
BEESAT 2 11 Feb 18:20:28 18:23:42 23° 315° (NW) 18:26:57 435.950
CUTE 1.7 + AOD 2 11 Feb 18:30:42 18:33:22 17° 64° (ENE) 18:36:02 437.475
GOMX 1 11 Feb 18:33:11 18:38:35 87° 73° (ENE) 18:43:44 467.674
SEEDS 11 Feb 18:34:17 18:36:23 14° 63° (ENE) 18:38:30 437.485
AAUSAT CUBESAT 2 11 Feb 18:44:48 18:45:39 11° 61° (ENE) 18:46:29 437.432
CINEMA 3 11 Feb 18:47:09 18:50:39 22° 67° (ENE) 18:54:03 145.822/145.860
